STARLINK-2743, 48682

Orbit data source: Space-Track

STARLINK-2743, 48682 is a payload satellite owned by SpaceX/Seattle (US) in LEO that was launched on Wed, 26 May 2021 UTC via an FALCON 9 launch vehicle from the Air Force Eastern Test Range (AFETR). Payload-class satellites include a variety of spacecraft equipped with specific instruments for various scientific and technological missions. These include communications satellites like Starlink; space stations such as the ISS; scientific satellites like the Hubble; Earth observation satellites from companies like Planet Labs, Umbra, and HawkEye 360; GPS; miniature CubeSats for education and research; and military/defense satellites.

Loading next visibility...
Identifier
48682, 2021-044AW
Orbit
LEO
Country
Flag of USUS
Related business
Manufacturer
SpaceX/Seattle
Mission
Operational Commercial Communications
Bus & Motor
STARLINK, Unknown motor
Mass
260 kg wet, ~248 kg dry
Launch date (UTC)
2021-05-26 (5 years ago)
Launch vehicle
FALCON 9
Launch site
Air Force Eastern Test Range (AFETR)
Object type
Payload
Rocket body
Debris
Shape & HBR
Box + 1 Pan, 10.1 m
Radar Cross Section
13.562 m², Large (>1 m²)

Expand to show TLE details & history
Last TLE update: 2 days ago

TLE from 2 days ago
0 STARLINK-2743
1 48682U 21044AW  26171.43222016 -.00001580  00000-0 -39143-4 0  9996
2 48682  53.1602 307.0279 0001228  65.4876 294.6253 15.31700131280243
Epoch: 2026-06-20T10:22Z
TLE epoch observation values (Epoch: 2026-06-20T10:22:23.821Z)
Latitude
-0.00007°
Longitude
-117.21833°
Altitude
471.29 km
Speed
7.632 km/s
True Right ascension
20h 28m 06s
True Declination
0° 00' 00"
Sunlit
Object was in full shadow at epoch
Visualization orbit readout
Latitude
Unknown
Longitude
Unknown
Altitude
Unknown
Speed
Unknown
Apparent Right ascension
Unknown
Apparent Declination
Unknown
Sunlit
N/A
Visualization observer readout
Local Sidereal Time
21:36:06
Azimuth
Unknown
Elevation
Unknown
Doppler factor
Unknown
Orbital elements
Apogee altitude
471.837 km
Perigee altitude
470.155 km
Semi-major axis
6,849.133 km
Eccentricity
0.00012
Inclination
53.1602°
RAAN
307.0279°
Arg. of periapsis
65.4876°
True anomaly
294.61251°
Mean anomaly
294.6253°
Eccentric anomaly
294.6189°
Mean motion
3.82904 °/min
Orbital period
94.02 mins
BSTAR
-0.000039143
Loading maneuver chart data...
Computing Atmospheric mass density...

Documentation

Showing up to 5 results
|